Location: Smithsonian NASM Public Observatory
(38.8879°N, 77.0185°W)
Time: 02:46:56
(UTC-04:00)

Daily predictions for brighter satellites

Satellite Brightness Start Highest point End
(mag) Time Altitude Azimuth Time Altitude Azimuth Time Altitude Azimuth
ALOS 2 4.2 00:14:39 30° NNE 00:14:39 30° NNE 00:17:11 10° N
Cosmos 2082 3.9 00:09:38 10° NNW 00:14:40 69° NNW 00:14:40 69° NNW
Cosmos 2278 4.0 00:17:39 65° NW 00:17:39 65° NW 00:22:58 10° NNE
H-2A R/B 4.4 00:27:42 16° WNW 00:27:42 16° WNW 00:29:10 10° NW
CZ-2C R/B 3.2 00:22:58 10° NNE 00:26:55 53° NNE 00:26:55 53° NNE
USA 229 DEB 3.6 00:30:45 85° WNW 00:30:48 85° WNW 00:37:47 10° NNE
USA 229 3.6 00:30:53 85° WNW 00:30:54 85° WNW 00:37:53 10° NNE
Cosmos 1656 4.1 00:32:39 57° NNW 00:32:39 57° NNW 00:37:20 10° NNE
Mayak 1.1 00:28:16 10° NNE 00:29:34 18° NE 00:29:34 18° NE
Cosmos 2227 Rocket 3.1 00:32:55 10° NW 00:37:06 40° WNW 00:37:06 40° WNW
CZ-4C R/B 3.4 00:34:04 10° NNW 00:41:04 52° NE 00:42:51 44° E
Cosmos 407 Rocket 4.3 00:45:44 10° NNW 00:49:36 49° NNW 00:49:36 49° NNW
BREEZE-M DEB (TANK) 4.1 00:39:43 10° WSW 00:59:04 76° NW 01:03:35 10° NE
Cosmos 1980 Rocket 2.8 01:01:51 52° NNE 01:01:51 52° NNE 01:06:02 10° NNE
NOSS 3-1 (C) 3.6 01:20:00 64° NNE 01:20:00 64° NNE 01:25:26 10° NNE
Cosmos 1697 Rocket 3.9 01:26:53 34° WNW 01:26:53 34° WNW 01:31:56 10° N
Cosmos 1745 Rocket 4.1 01:29:34 69° NNE 01:29:34 69° NNE 01:34:58 10° N
Cosmos 2297 Rocket 4.2 01:28:07 10° NW 01:30:09 17° WNW 01:30:09 17° WNW
SL-16 R/B 2.7 01:48:33 54° NE 01:48:33 54° NE 01:52:57 10° NNE
Cosmos 2322 Rocket 2.6 01:54:35 60° NE 01:54:35 60° NE 01:59:13 10° NNE
USA 234 4.1 01:51:52 10° ENE 01:56:48 37° ESE 01:56:48 37° ESE
ADEOS Rocket 4.3 01:54:38 10° NE 01:59:28 25° E 01:59:35 25° E
Mayak 1.3 02:04:53 10° NNW 02:06:13 14° NW 02:06:13 14° NW
CZ-2D R/B 4.3 02:10:54 10° NE 02:14:07 16° E 02:14:56 15° ESE
Cosmos 44 Rocket 4.3 02:10:03 10° NNW 02:13:48 42° NNE 02:13:48 42° NNE
ATLAS 2AS CENTAUR R/B 3.4 02:21:11 44° SE 02:22:02 46° ESE 02:29:38 10° NE
NOSS 3-1 (A) 4.2 02:26:49 38° WNW 02:27:40 40° NW 02:33:46 10° NNE
CZ-4C R/B 3.8 02:22:55 10° NW 02:27:59 34° W 02:27:59 34° W
Cosmos 2263 Rocket 2.3 02:28:26 10° NNW 02:33:26 69° NW 02:33:26 69° NW
NOSS 2-3 (E) 4.5 02:35:19 52° ENE 02:35:19 52° ENE 02:39:33 10° NE
SL-08 ROCKET BODY 4.4 02:35:35 71° ESE 02:35:50 72° E 02:41:52 10° N
Cosmos 1709 Rocket 4.1 02:39:20 59° WNW 02:39:20 59° WNW 02:45:13 10° N
Cosmos 2360 Rocket 2.1 02:43:23 80° ENE 02:43:23 80° ENE 02:48:50 10° NNE
ARIANE 5 R/B 4.1 02:40:47 10° NE 02:45:01 25° E 02:45:52 24° ESE
Cosmos 1980 Rocket 4.3 02:43:36 13° WNW 02:45:07 15° NW 02:48:11 10° NNW
Cosmos 2219 Rocket 3.9 02:44:12 20° ESE 02:45:15 21° E 02:49:23 10° NE
Cosmos 1331 Rocket 4.3 02:46:22 57° NW 02:46:22 57° NW 02:50:54 10° NNE
ATLAS 3B R/B 4.2 02:40:35 10° NNW 02:46:33 32° NE 02:52:17 10° ESE
Meteor 2-13 Rocket 4.3 02:49:39 75° SSE 02:50:09 83° E 02:56:20 10° N
Cosmos 2228 4.4 02:52:45 32° E 02:52:45 32° E 02:56:20 10° NNE
Cosmos 1844 Rocket 4.4 02:47:49 10° N 02:52:46 30° ENE 02:57:43 10° ESE
Cosmos 1825 Rocket 4.3 02:48:35 10° N 02:52:01 51° NNE 02:52:01 51° NNE
SL-8 R/B 4.2 02:56:08 56° NNW 02:56:08 56° NNW 03:00:44 10° NE
Cosmos 1758 Rocket 4.3 02:51:55 10° N 02:55:36 50° NE 02:55:36 50° NE
COSMOS 2428 3.2 02:59:19 47° SE 02:59:55 49° ESE 03:05:27 10° NNE
Helios 1A Rocket 4.1 03:01:54 10° N 03:04:37 36° NNW 03:04:37 36° NNW
NOSS 2-3 (C) 4.0 03:07:39 65° NW 03:07:39 65° NW 03:12:58 10° NNE
Iridium 4 Rocket 4.0 03:07:51 50° SE 03:09:08 63° E 03:14:36 10° N
Aureole 2 Rocket 4.5 03:09:31 27° E 03:09:31 27° E 03:12:46 10° NE
Cosmos 2327 Rocket 4.4 03:09:11 61° S 03:10:26 90° WNW 03:16:54 10° N
CBERS-1 3.9 03:05:38 10° N 03:10:47 80° WNW 03:10:52 80° W
Cosmos 1486 Rocket 3.8 03:10:08 10° NNW 03:15:27 80° WSW 03:15:34 80° SW
Cosmos 2322 3.7 03:15:50 61° W 03:16:21 64° WNW 03:22:00 10° NNE
Cosmos 1378 4.2 03:13:12 10° N 03:16:27 42° ENE 03:16:27 42° ENE
Lacrosse 5 rocket 3.8 03:14:47 10° NNW 03:17:56 22° NE 03:21:13 10° E
Cosmos 2333 Rocket 3.4 03:16:29 27° SE 03:18:15 33° ESE 03:23:16 10° NE
SL-08 R/B 3.4 03:18:56 60° NW 03:18:56 60° NW 03:22:55 10° NNW
SL-16 R/B 2.6 03:15:50 34° SSE 03:18:42 74° ENE 03:24:57 10° N
Cosmos 2184 Rocket 3.9 03:18:46 60° SW 03:19:46 71° W 03:25:56 10° N
Resurs 1-4 Rocket 2.3 03:15:30 10° NNE 03:20:45 65° ESE 03:21:44 54° SSE
Cosmos 389 Rocket 4.2 03:22:53 28° E 03:22:53 28° E 03:25:58 10° NNE
Cosmos 2278 Rocket 4.5 03:22:46 10° N 03:27:14 23° NE 03:31:42 10° ESE
UNK 3.7 03:26:56 66° SE 03:27:32 80° ENE 03:32:10 10° N
Cosmos 1354 Rocket 4.2 03:26:02 10° NNW 03:31:21 73° ENE 03:33:53 31° SSE
SL-16 R/B 4.1 03:30:24 16° WNW 03:32:00 17° NW 03:35:41 10° N
IRS-1C 4.1 03:27:08 10° N 03:32:26 66° WNW 03:33:15 58° WSW
Cosmos 1953 Rocket 4.0 03:28:52 10° NNW 03:32:41 51° WNW 03:32:41 51° WNW
AQUA 4.1 03:28:56 10° N 03:33:33 51° WNW 03:33:42 51° W
Abrixas rocket 4.2 03:34:57 24° E 03:34:57 24° E 03:36:41 10° ENE
DELTA 2 R/B (1) 3.5 03:32:19 47° W 03:33:58 85° N 03:39:35 10° E
Cosmos 2058 Rocket 3.1 03:36:39 65° W 03:36:39 65° W 03:41:08 10° N
Cosmos 1707 3.1 03:32:54 10° N 03:36:03 56° NNW 03:36:03 56° NNW
Cosmos 2322 Rocket 4.2 03:36:23 14° WNW 03:38:14 16° NW 03:41:37 10° NNW
Meteor 1-24 Rocket 4.3 03:34:27 10° N 03:39:49 54° ENE 03:44:12 16° SSE
Lacrosse 5 3.6 03:39:26 18° SE 03:40:54 21° ESE 03:44:38 10° ENE
USA 234 3.6 03:34:39 10° NE 03:41:03 57° NW 03:44:08 31° W
ADEOS Rocket 3.4 03:39:33 10° N 03:45:12 41° WNW 03:46:32 36° W
Cosmos 2333 4.2 03:44:12 50° SW 03:45:44 75° WNW 03:51:26 10° NNE
CZ-2D R/B 4.4 03:43:30 10° NNE 03:47:36 44° E 03:48:59 32° SE
Meteor 2-5 Rocket 3.7 03:41:54 10° NNW 03:47:36 77° W 03:49:55 38° S
ERBS 3.2 03:48:58 43° ESE 03:48:58 43° ESE 03:51:56 10° NE
Nadezhda 3 Rocket 3.9 03:42:46 10° N 03:49:03 88° W 03:52:38 28° S
Cosmos 962 Rocket 4.5 03:47:03 33° S 03:49:59 79° E 03:56:07 10° N
Cosmos 1766 3.5 03:49:22 54° SE 03:50:00 64° E 03:53:55 10° NNE
H-2A R/B 3.9 03:21:16 10° W 03:53:26 50° SSW 03:59:04 10° SE
Cosmos 1844 3.9 03:48:06 10° NNW 03:53:44 72° ENE 03:59:23 10° SSE
CZ-2D R/B 2.2 03:49:10 10° N 03:54:36 63° WNW 03:56:15 43° SW
BREEZE-M DEB (TANK) 3.3 03:56:16 43° SSW 03:57:47 70° SE 04:11:49 10° NE
Cosmos 1607 4.0 03:51:31 10° NW 03:57:49 58° WSW 04:02:38 18° S
OPS 6432 4.2 04:03:04 80° WSW 04:03:12 83° WNW 04:06:18 10° NNE
IRS-1D 3.8 03:59:19 10° N 04:04:06 49° WNW 04:05:27 38° WSW
Cosmos 1184 Rocket 4.2 04:01:39 10° NNW 04:03:38 28° NW 04:03:38 28° NW
Okean O Rocket 4.2 04:02:03 10° NE 04:04:48 16° E 04:07:32 10° SE
Spot 4 Rocket 4.5 04:01:24 10° N 04:06:19 46° WNW 04:07:50 35° WSW
MOS 1 Rocket 3.1 04:02:22 10° N 04:06:47 65° WNW 04:07:53 46° SW
OAO 3 Rocket 3.4 04:06:14 45° SSW 04:06:49 47° S 04:11:28 10° ESE
Cosmos 1503 Rocket 4.2 04:03:18 10° NNW 04:08:27 51° WSW 04:10:27 34° SSW
ATLAS 2AS CENTAUR R/B 3.7 04:08:38 24° WSW 04:13:07 44° NW 04:20:52 10° NNE
ADEOS 3.8 04:08:34 10° N 04:13:39 53° WNW 04:15:40 33° SW
Cosmos 2154 Rocket 4.3 04:12:07 31° SW 04:14:43 48° WNW 04:20:46 10° N
Cosmos 1544 3.0 04:15:09 47° SSW 04:16:08 82° W 04:19:53 10° N
Cosmos 1992 Rocket 4.4 04:16:51 33° WSW 04:18:47 48° WNW 04:23:50 10° N
In-Cosmos 22 4.0 04:14:04 10° N 04:19:24 87° W 04:24:18 12° S
Cosmos 1805 3.2 04:17:43 32° S 04:19:25 80° E 04:23:21 10° N
NOSS 3-4 (A) 4.0 04:16:50 21° S 04:20:58 55° ESE 04:27:15 10° NE
NOSS 3-4 (C) 4.0 04:16:53 21° S 04:21:03 55° ESE 04:27:19 10° NE
Cosmos 1271 Rocket 4.0 04:23:45 25° W 04:24:09 26° WNW 04:27:30 10° NNW
ARIANE 5 R/B 3.3 04:19:28 10° N 04:24:10 37° WNW 04:26:12 26° WSW
Cosmos 2360 Rocket 4.2 04:25:09 11° W 04:27:52 15° NW 04:31:06 10° NNW
Cosmos 2219 Rocket 2.6 04:25:56 27° SW 04:28:46 50° WNW 04:34:18 10° NNE
BREEZE-M DEB (TANK) 4.1 04:27:31 29° SW 04:29:52 86° SE 04:44:12 10° ENE
Cosmos 2366 rocket 4.1 04:25:29 11° S 04:31:23 75° E 04:37:37 10° N
Tiangong 1 1.4 04:31:28 39° SSE 04:31:38 40° SSE 04:34:15 10° E
Cosmos 1340 Rocket 3.7 04:31:02 10° NNW 04:34:28 29° W 04:34:59 28° WSW
Cosmos 1844 Rocket 3.2 04:31:31 10° NW 04:36:41 37° WSW 04:40:43 15° SSW
Cosmos 1980 3.7 04:33:22 23° SSW 04:36:57 73° WNW 04:42:40 10° NNE
ATLAS 3B R/B 2.7 04:31:04 10° NW 04:37:28 52° WSW 04:43:41 10° S
Cosmos 2237 Rocket 2.2 04:34:01 22° SSW 04:37:41 78° WNW 04:43:20 10° NNE
Intelsat 5-1 Rocket 4.2 04:37:15 14° S 04:38:42 16° SSE 04:43:08 10° SE
SeaSat 1 4.2 04:36:20 10° ESE 04:40:48 36° ENE 04:45:18 10° N
UNKNOWN OBJECT B 3.8 04:40:34 10° N 04:44:00 31° WNW 04:45:33 23° WSW
COSMOS 2428 4.1 04:41:21 16° W 04:44:27 24° NW 04:49:04 10° N
Aureole 2 Rocket 4.3 04:43:07 19° W 04:44:30 22° WNW 04:47:42 10° NNW
BREEZE-M DEB (TANK) 3.1 04:43:16 18° W 04:45:17 47° NNW 04:50:44 10° ENE
SEDSat Delta rocket 3.8 04:44:27 24° SSW 04:45:39 28° S 04:49:12 10° ESE
Cosmos 864 Rocket 4.4 04:40:22 10° S 04:46:32 87° W 04:52:41 10° N
CZ-4B R/B 4.3 04:44:34 10° NNE 04:49:58 44° E 04:55:14 10° S
ADEOS II 2.2 04:47:26 10° NNE 04:52:43 79° ESE 04:57:58 10° S
Cosmos 2218 Rocket 4.1 04:50:23 12° SSW 04:56:08 62° W 05:02:28 10° N
MOS 1-B 4.3 04:50:19 10° N 04:56:08 77° WNW 05:01:55 10° SSW
Cosmos-2242 4.0 04:52:48 10° SSE 04:56:54 48° E 05:01:02 10° NNE
Lacrosse 5 rocket 1.5 04:53:24 10° NW 04:57:19 49° SW 05:01:28 10° SSE
Cosmos 1777 Rocket 4.4 04:52:45 10° NNW 04:57:59 69° ENE 05:03:13 10° SSE
Cosmos 482 Debris 2.6 04:59:12 33° SW 04:59:56 87° NW 05:02:26 10° NE
Resurs 1-4 Rocket 3.9 04:56:58 10° NNW 05:00:01 16° WNW 05:02:49 11° W
Meteor 2-14 Rocket 4.4 04:55:38 10° SSW 05:01:39 67° W 05:07:44 10° N
Cosmos 2333 Rocket 3.1 04:58:30 16° WSW 05:02:26 34° WNW 05:07:35 10° N
SL-16 R/B 4.0 05:00:56 14° WSW 05:02:52 16° W 05:06:32 10° NW
DELTA 2 R/B(2) 2.8 05:04:21 28° W 05:05:04 75° N 05:06:58 10° E
USA 161 2.2 05:03:28 14° SSW 05:05:39 34° W 05:08:18 10° NNW
Cosmos 1758 4.0 05:03:49 16° SW 05:06:37 36° WNW 05:10:23 10° N
USA 238 DEB 4.2 05:02:34 10° NW 05:09:05 40° WSW 05:15:39 10° S
USA 238 4.1 05:02:40 10° NW 05:09:13 41° WSW 05:15:48 10° S
Cosmos 1356 Rocket 4.2 05:05:46 10° NNW 05:09:14 28° W 05:12:37 10° SSW
Abrixas rocket 3.5 05:07:34 12° W 05:10:22 34° NNW 05:13:27 10° NE
Cosmos 1470 2.7 05:06:35 10° SSW 05:10:29 69° W 05:14:23 10° N
Cosmos 1953 3.0 05:07:48 14° SW 05:10:57 37° WNW 05:14:42 10° N
Cosmos 2278 Rocket 2.4 05:06:08 10° NNW 05:11:36 50° WSW 05:17:01 10° S
Cosmos 968 Rocket 4.1 05:13:47 10° NW 05:18:21 33° W 05:22:53 10° SSW
Centaur D AC-29 3.4 05:13:55 12° SW 05:18:40 33° S 05:39:56 10° ESE
PSLV R/B 4.1 05:15:10 10° N 05:19:02 52° WNW 05:22:56 10° SSW
DELTA 2 R/B (1) 3.6 05:14:56 10° W 05:20:31 84° SSW 05:26:06 10° ESE
CZ-4B DEB 4.3 05:15:23 10° NNE 05:20:59 88° ESE 05:26:32 10° SSW
Cosmos 1733 3.7 05:19:12 10° SSW 05:22:55 43° W 05:26:38 10° N
Lacrosse 5 2.1 05:18:39 11° SW 05:23:27 60° NW 05:28:30 10° NE
NOSS 3-2 (A) 4.1 05:16:41 10° NW 05:24:14 64° WSW 05:32:20 10° SSE
Cosmos 1076 Rocket 3.8 05:21:08 10° NNW 05:25:13 46° W 05:29:17 10° SSW
ERBS 4.4 05:22:57 10° W 05:25:27 18° NW 05:27:56 10° N
Cosmos 1674 3.5 05:22:30 10° NNW 05:25:58 32° W 05:29:25 10° SSW
SL-16 R/B 2.2 05:21:26 10° SSW 05:27:05 73° WNW 05:32:47 10° NNE
Meteor PRIRODA 4.1 05:25:33 10° NNE 05:29:16 65° E 05:32:57 10° S
NOSS 2-2 (D) 4.1 05:28:42 10° SSW 05:32:32 54° ESE 05:36:48 10° NE
Cosmos 1842 Rocket 4.5 05:29:49 10° S 05:34:03 52° E 05:38:17 10° NNE
COSMOS 2455 4.3 05:28:53 10° NNW 05:34:37 43° NE 05:40:18 10° SE
Cosmos 1821 Rocket 4.3 05:29:17 10° S 05:35:40 79° E 05:42:03 10° N
RESURS DK-1 2.5 05:33:21 10° SSW 05:37:27 63° WNW 05:41:36 10° NNE
Cosmos 489 Rocket 4.5 05:31:14 10° NNW 05:37:29 85° WSW 05:43:40 10° SSE
CZ-4B R/B 3.6 05:33:58 10° N 05:37:37 37° WNW 05:41:26 10° SW
Landsat 4 3.9 05:36:12 10° S 05:39:47 46° W 05:43:24 10° NNW
Okean O Rocket 2.1 05:37:07 10° N 05:41:22 43° WNW 05:45:34 10° SW
CZ-2C R/B 3.7 05:36:53 10° SSE 05:41:23 90° ENE 05:45:52 10° NNW
